Location: Gälforsberget
(66.6500°N, 22.4167°E)
Time: 07:32:04
(UTC+00:00)

Cosmos 1269 Rocket - Pass Details

Date: 11 April 2026
Orbit: 768 x 775 km, 74.1° (Epoch: 13 May)

Event Time Altitude Azimuth Distance (km) Brightness Sun altitude
Rises 20:45:22 0° 318° (NW) 3,256 8.9 -12.4°
Reaches altitude 10° 20:47:46 10° 317° (NW) 2,327 7.8 -12.5°
Maximum altitude 20:53:01 73° 234° (SW) 814 4.1 -12.7°
Enters shadow 20:56:54 19° 152° (SSE) 1,802 5.3 -12.8°
